Weather History for Punta Gorda, FL

Change the Weather History Date:

Friday, November 9, 2012

  Actual Average Record
Temperature  
Mean Temperature 62 °F -  
Max Temperature 77 °F 78 °F 84 °F (2000)
Min Temperature 46 °F 58 °F 46 °F (2010)
Degree Days  
Heating Degree Days 4    
Growing Degree Days 12 (Base 50)    
Moisture  
Dew Point 46 °F    
Average Humidity 63    
Maximum Humidity 86    
Minimum Humidity 26    
Precipitation  
Precipitation 0.00 in - - ()
Sea Level Pressure  
Sea Level Pressure 30.22 in    
Wind  
Wind Speed 7 mph (NE)    
Max Wind Speed 13 mph    
Max Gust Speed 16 mph    
Visibility 10 miles    
Events      
Averages and records for this station are not official NWS values.
T = Trace of Precipitation, MM = Missing Value Source: NWS Daily Summary

Daily Weather History Graph

Daily Weather History Graph

Search for Another Location

Airport:

Trip Planner

Search our weather history database for the weather conditions in past years. The results will help you decide how hot, cold, wet, or windy it might be!

Date:

Astronomy

Nov. 09, 2012 Rise Set
Actual Time 6:43 AM EST 5:39 PM EST
Civil Twilight 6:19 AM EST 6:03 PM EST
Nautical Twilight 5:51 AM EST 6:31 PM EST
Astronomical Twilight 5:24 AM EST 6:59 PM EST
Moon 2:06 AM EST (11/9) 2:30 PM EST (11/9)
Length of Visible Light 11h 44m
Length of Day
10h 56m
Waning Crescent, 23% of the Moon is Illuminated
Nov 9
Waning Crescent
Nov 13
New
Nov 20
First Quarter
Nov 28
Full
Dec 6
Last Quarter

Hourly Weather History & Observations

Time (EST) Temp. Dew Point Humidity Pressure Visibility Wind Dir Wind Speed Gust Speed Precip Events Conditions
12:53 AM 48.9 °F 44.1 °F 83% 30.20 in 10.0 mi NNE 3.5 mph - N/A   Clear
1:53 AM 46.9 °F 43.0 °F 86% 30.19 in 10.0 mi NNE 5.8 mph - N/A   Clear
2:53 AM 46.9 °F 43.0 °F 86% 30.19 in 10.0 mi NNE 3.5 mph - N/A   Clear
3:53 AM 48.0 °F 44.1 °F 86% 30.19 in 9.0 mi NNE 6.9 mph - N/A   Clear
4:53 AM 48.0 °F 44.1 °F 86% 30.20 in 10.0 mi NNE 5.8 mph - N/A   Clear
5:53 AM 48.0 °F 44.1 °F 86% 30.21 in 10.0 mi NNE 9.2 mph - N/A   Clear
6:53 AM 48.0 °F 43.0 °F 83% 30.23 in 8.0 mi NNE 6.9 mph - N/A   Clear
7:53 AM 54.0 °F 45.0 °F 72% 30.25 in 10.0 mi NE 6.9 mph - N/A   Clear
8:53 AM 60.1 °F 45.0 °F 57% 30.26 in 10.0 mi NE 11.5 mph - N/A   Clear
9:53 AM 66.9 °F 46.0 °F 47% 30.27 in 10.0 mi ENE 12.7 mph - N/A   Clear
10:53 AM 72.0 °F 48.0 °F 43% 30.27 in 10.0 mi NE 9.2 mph - N/A   Clear
11:53 AM 73.9 °F 43.0 °F 33% 30.25 in 10.0 mi NE 4.6 mph - N/A   Clear
12:53 PM 75.9 °F 41.0 °F 29% 30.22 in 10.0 mi North 6.9 mph - N/A   Clear
1:53 PM 77.0 °F 39.9 °F 26% 30.20 in 10.0 mi NE 8.1 mph - N/A   Clear
2:53 PM 77.0 °F 43.0 °F 30% 30.18 in 10.0 mi ENE 5.8 mph 16.1 mph N/A   Clear
3:53 PM 77.0 °F 44.1 °F 31% 30.18 in 10.0 mi ENE 12.7 mph - N/A   Clear
4:53 PM 73.9 °F 48.0 °F 40% 30.18 in 10.0 mi East 9.2 mph - N/A   Partly Cloudy
5:53 PM 64.9 °F 50.0 °F 58% 30.19 in 10.0 mi ENE 8.1 mph - N/A   Clear
6:53 PM 62.1 °F 48.9 °F 62% 30.21 in 10.0 mi NE 5.8 mph - N/A   Clear
7:53 PM 62.1 °F 51.1 °F 67% 30.23 in 10.0 mi East 8.1 mph - N/A   Clear
8:53 PM 59.0 °F 51.1 °F 75% 30.25 in 10.0 mi ENE 6.9 mph - N/A   Clear
9:53 PM 57.9 °F 51.1 °F 78% 30.26 in 10.0 mi ENE 5.8 mph - N/A   Clear
10:53 PM 55.9 °F 50.0 °F 80% 30.26 in 10.0 mi East 6.9 mph - N/A   Clear
11:53 PM 54.0 °F 48.9 °F 83% 30.25 in 10.0 mi ENE 4.6 mph - N/A   Clear